"Pseudo-MPEC" for A10DvUj

Created 2021 Nov 27 10:07:05 UT using Find_Orb

Click here for an explanation of pseudo-MPECs

 
 Astrometry: 
     A10DvUj  C2021 11 25.49894005 43 06.17 +32 14 27.5    ~BPFb 17.58oVNEOCPT05
     A10DvUj  C2021 11 25.50309205 42 59.85 +32 14 15.5    ~BPFb 17.12oVNEOCPT05
     A10DvUj  C2021 11 25.51414005 42 43.22 +32 13 42.0    ~BPFb 17.35oVNEOCPT05
     A10DvUj  C2021 11 25.51968005 42 34.93 +32 13 24.8    ~BPFb 17.37oVNEOCPT05
     A10DvUj KC2021 11 25iU@$f%#iu5;ktj,LRoOEFs9cpERL?18]Mr:pG1+b3w6WyB]+k2P7Q21
     A10DvUj KC2021 11 25_jUUia'brtEl9pmJV7Sln,i+8Z=BLV2[2UB9=ogbo3V?'ZA]rN)@Q21
     A10DvUj  C2021 11 25[LLs-C;3T(nf]jY!9G=.Zs(a.#xR\3.`o$U(X]PxuAWvZ$mC9A%TN51
     A10DvUj  C2021 11 25O(-/ZicmQD-GHc)ZZXuU5Kins2a:7oC@RTE;w_/xaL'AM;SpC(`kN51
     A10DvUj  C2021 11 25!LRoG8^$jlI_nFy$D:P\WAi4l2R#q$/fBW$Z[HM^aA+`y)!*c7;+N51
     A10DvUj KC2021 11 25ZOQGk)JaZ(^k`bEdJAIdt-?$p0@UkI,8oi1QP:5AT-!=SfgNi+HvL18
     A10DvUj KC2021 11 25KMG[GVpcre,5w]ekrayZb3(];LicHnjI)70bC('OqXg]#_x#s:?,L18
     A10DvUj KC2021 11 25CWGIeqnUuwG!acxDjMoI:RLT*)MEI4BZ5kZN07%WlAtj?dr4gfAnL18
     A10DvUj KC2021 11 25@KwHp68Z%]nvj7V!^wuNp_*'g%uaQLc!Myna%QV_QR)C.*'_%//0L18
     A10DvUj  C2021 11 25:EQst8JGNUti4KyMW,Vn:[.sj=8T17++2D/35;//^x5^KFD\F8P[P93
     A10DvUj  C2021 11 25FJ%dbZuSeZ?cj,=%G'i,%$D*JhfJ=_'AdE]Dt6dUV'EbyJdmJ+KnP93
     A10DvUj  C2021 11 25iO6AstrometryVypM8wn#BQ!=AerwGq:Fu$Li(1:vj20C(7\Z_96P93
     A10DvUj  C2021 11 25:s2E/M#M8[S'cu9r?%)=btyBZlxJ,L\fqF94I@L_s-H7\0Am?)grP93
     A10DvUj KC2021 11 26.10127505 32 59.53 +31 53 03.6    ~BQ2q 17.3 GXNEOCPY00
     A10DvUj KC2021 11 26.10413305 32 56.86 +31 52 58.8    ~BQ2q 17.6 GXNEOCPY00
     A10DvUj KC2021 11 26.10699105 32 54.19 +31 52 53.2    ~BQ2q 18.3 GXNEOCPY00
     A10DvUj  C2021 11 26%!dXLp*b7!.P52K;qDs695o1m4n4`t6$RN6$e73p'yAvJ?SC/l3/V27
     A10DvUj  C2021 11 26aDVO8kif[mrwu.!aFhWMAR#kKV5[jcFGl8l[%M(w$$,Ye,Hv3i(6V27
     A10DvUj  C2021 11 265SmJ4oLY3LZ%d;C-CA1G'jf3lF6D\KR)O@SUSf'3EE9`i*d1+kVrV27
     A10DvUj  C2021 11 26$h$l3`=eDF_w!9=\Lb(@#K@-5,l^-b1t(9F)xC^7:A##8N2gcr3iV27
     A10DvUj  C2021 11 264RM-95r3kL8]J5BPcZ-fLg:^.#WAFEsMRfJy-%KEbv5*8eGLLgx9V27
     A10DvUj  C2021 11 26[6G^Gh^m1y('J(5O-4k)IPu4Q!`?SSD9kCw8_c8Ajb#Yk1n6n=fDV27
     A10DvUj  C2021 11 26,EF7S7wPBw([6EsXi55IF=poZ79f/83Fkg]Bghe?JFUos3^.I-hIV27
     A10DvUj KC2021 11 26J^+uWK*p8P;%h^G0#fZIAOBUg*Xur'y0^,W0j'Huw(=5OM8;-;\6734
     A10DvUj KC2021 11 267k#A#Rm_R#_6cpTx#)O+FdZsVOZqeJbWM)4Zredacted;vs2yXc)734
     A10DvUj  C2021 11 26.39425 05 29 12.41 +31 38 56.6    ~BQA7 18.1  rNEOCP718
     A10DvUj  C2021 11 26.39533 05 29 11.54 +31 38 55.1    ~BQA7 18.4  rNEOCP718
     A10DvUj  C2021 11 26.39641 05 29 10.78 +31 38 53.8    ~BQA7 18.2  rNEOCP718
     A10DvUj  C2021 11 26.39749 05 29 09.88 +31 38 52.9    ~BQA7 18.2  rNEOCP718
     A10DvUj  C2021 11 26.39858 05 29 09.14 +31 38 48.9    ~BQA7 18.0  rNEOCP718
     A10DvUj  C2021 11 26Wq[40?NSM*\a!G1cX8Fmrv@^OS;l\rc=`='%=U2D_n+:oWNUWu'SP93
     A10DvUj  C2021 11 26;f(H[u*-8!mV(rM]^rv,W6!NG))$Xd1N*:vei'r'\e7e7eHu7E[HP93
     A10DvUj  C2021 11 2657v7@Y;SDclick''NAW:d^2EAR]`i.?m-;w7l42K)eo0Fx+#lIXoP93
     A10DvUj  C2021 11 2670,wT._sUGMpD?b2Q4op]Zp5?s'ii`^pjWJR=w-dKWbj@Nu.wEEWP93
     A10DvUj  C2021 11 26;[whbfXH$8sHpwTgua+Fmj8u?rd*Y5'!wGY%rM'BJ[/Ev:Enaia6900
     A10DvUj  C2021 11 26.a.L;8_Psa(@@(yl/hY;wY7k$,RHmh0.Q]JCBq)(k$dkJsK9-gjf900
     A10DvUj KC2021 11 26$\DdhFW1W@:j_6DVt'HRkm?o+`FdvjN7`Onkbp+Rn;Lu=$A0[`)PQ21
     A10DvUj KC2021 11 26@4jfR@0'_!ghIGZ1=?de4jaRo(*By4b4YN@y^G8`h'/5;uhere,4Q21
     A10DvUj KC2021 11 26.90542905 24 40.12 +31 24 53.2    ~BR0q 18.6 GVNEOCPZ80
     A10DvUj KC2021 11 26.92535105 24 29.40 +31 24 35.2    ~BR0q 19.0 GVNEOCPZ80
     A10DvUj 1C2021 11 269rH)3TR;K6]JKy8*MY]eZP%IWi^LdE`Wqb`*=mEB)\l.[+lbPMxZL81
     A10DvUj 1C2021 11 27-G7v`=`_WqV?1`6$+XbAKJ0=dNGkL'xNrth54Ml+]1=CHu(Z7I+bL81
     A10DvUj 1C2021 11 27Ko%iC4J-3R%at:P!`[^qR's(/TsX9[]c:,@:0M',i6F?7,TuforXL81
     A10DvUj KC2021 11 27aV+ie9wSx4pln3/g:6]GYtGxe.S;fnqK77eShrQ#hDqD1ZeKKIr*W33
     A10DvUj KC2021 11 27wt)(6Wn^Osu@^N.0ZexX7Ciqbnv1A'b;d%CT\k8ed3+I;nYuY2Sp204
     A10DvUj KC2021 11 27/vBqk]2yEMc$p=a;/%B2(^39NAd]=`.b$ktXk!AoK90fH7lE#N]]204
     A10DvUj KC2021 11 27jpv7:U/dq%/F7TGX$MK49N%_s(4Ve$LwVRMWpD6ZjMhl_l?e'29,W33
     A10DvUj KC2021 11 27r2i`hTnJo2'_8r^N,NUu@ng9YHLr/x*x8L,Vu1-8(G*+2a3g\.[#W33
     A10DvUj  C2021 11 27GoMgi%LA=RMNM^T[P\(Z6glw33.Ik0K]_:c1[db.7!bL+x.f5u2fV27
     A10DvUj  C2021 11 27PT8IEHAJ,dIly)0a8!TNHS6hBfT.TT#aWx1c%OfKNo[ja\,d.IUvV27
     A10DvUj  C2021 11 27EAQ-7+JEc1aw?@+kUUyc_2'H5\DZWOhH58nR#JmTD4[)Yj^`iU#(V27
     A10DvUj  C2021 11 27A^PWuOkR$3UmKIE)Mm]q'!:.9TQHW4jpd!k9lwexplanationrR?V27

Station data:
(204) Schiaparelli Observatory  (N45.867933 E8.770800)  Italy.  Observer L.
   Buzzi. 0.60-m f/4.64 Newtonian + CCD.
(718) Tooele  (N40.641408 W112.295800)  US/Utah.  Observer P. Wiggins. 0.35-m
   f/5.5 Schmidt-Cassegrain + CCD.
(734) Farpoint Observatory, Eskridge  (N38.890107 W96.001400)  US/Kansas.
   Observer G. Hug. 0.69-m reflector + CCD.
(900) Moriyama  (N35.049756 E135.989940)  Japan. 0.25-m Schmidt-Cassegrain.
(L18) QOS Observatory, Zalistci  (N48.848295 E26.718280)  Ukraine.
(L81) Skygems Namibia Remote Observatory  (S23.236422 E16.361690)  Namibia.
(N51) GROWTH India Telescope, IAO, Hanle  (N32.779244 E78.964610)  India.
(P93) Space Tracking and Communications Center, JAXA  (N34.672353
   E133.544330)  Japan.  Observers S. Okumura, T. Fujiwara. 1.0-m f/3.0
   reflector + CCD.
(Q21) Southern Utsunomiya  (N36.507360 E139.853350)  Japan.
(T05) ATLAS-HKO, Haleakala  (N20.707573 W156.257010)  US/Hawaii.  Observers
   L. Denneau, A. Heinze, H. Weiland, J. Tonry, H. Flewelling, A.
   Fitzsimmons, D. Young, B. Stalder. Measurers L. Denneau, A. Heinze, J.
   Tonry. 0.5-m f/2.0 Schmidt + CCD.
(V27) North Mesa Observatory, Los Alamos  (N35.890115 W106.281810)  US/New
   Mexico.
(W33) Transit Dreams Observatory, Campobello  (N35.077819 W82.165490)
   US/South Carolina.
(Y00) SONEAR Observatory, Oliveira  (S20.715082 W44.784960)  Brazil.
   Observers C. Jacques, E. Pimentel, J. Barros. Measurer C. Jacques. 0.28-m
   f/2.2 astrograph + CCD.
(Z80) Northolt Branch Observatory  (N51.554661 W0.371920)  UK.  Observer G.
   Wells. Measurer D. Bamberger. 0.25-m f/8 Ritchey-Chrétien + CCD.

Orbital elements:  A10DvUj
   Perihelion 2021 Oct 15.197546 +/- 0.00657959 TT =  4:44:28 (JD 2459502.697546)
Epoch 2021 Nov 27.0 TT = JDT 2459545.5   Earth MOID: 0.0007   Ve: 0.0515
M  11.42123781 +/- 0.0196047        Ma: 0.0048                AutoNEOCP
n   0.26683605 +/- 0.000417046      Peri.  298.89758 +/- 0.0015687
a   2.38949637 +/- 0.00248969       Node    60.68507 +/- 0.0004441
e   0.6743950 +/- 0.00037167        Incl.    3.45145 +/- 0.0014780
P   3.69                   H 25.1   G  0.15   U  7.5  
q 0.77803176 +/- 7.76411e-5    Q 4.00096098 +/- 0.00505173
From 56 observations 2021 Nov. 25-27 (41.8 hr); mean residual 0".62
Residuals in arcseconds: 
211125 T05  .46+  .56-    211126 Y00  .43+  .54-    211126 900  1.6-  .04-    
211125 T05  .24+  .19-    211126 V27  .52-  .88-    211126 900  1.4-  .35-    
211125 T05  .42+  .20-    211126 V27  .39-  .08+    211126 Q21  .03+  .35+    
211125 T05  .22+  .30-    211126 V27  .35+  .25+    211126 Q21  .51+  .11+    
211125 Q21  .23-  .63-    211126 V27  .75+  .59-    211126 Z80  1.7+  .09+    
211125 Q21  .23+  1.1-    211126 V27  .05-  .18+    211126 Z80  .94+  .27+    
211125 N51  .93-  1.5+    211126 V27  .14+  .15-    211126 L81  .06-  .21-    
211125 N51  .36-  1.6+    211126 V27  .32+  .14+    211127 L81  .20-  .35-    
211125 N51  1.8-  1.6+    211126 734  .20+  .23-    211127 L81  .07-  .19-    
211125 L18  .19+  .40-    211126 734  .25+  .17-    211127 W33  .13-  .03-    
211125 L18  .27+  .69-    211126 718  .28+  .75-    211127 204  .06-  .10-    
211125 L18  .14-  .15+    211126 718  .27-  .22-    211127 204  .12+  .12+    
211125 L18  .66+  .37-    211126 718  .57+  .51+    211127 W33  .23-  .27+    
211125 P93  .20+  .09-    211126 718  .39-  1.6+    211127 W33  .21+  .15+    
211125 P93  .35+  1.1-    211126 718  .79+  .30-    211127 V27  1.5-  .27+    
211125 P93  .27-  .04-    211126 P93  .62+  .43-    211127 V27  1.7-  .27-    
211125 P93  .37+  .40-    211126 P93  .66+  .36-    211127 V27  .70+  .56-    
211126 Y00  .48-  .47+    211126 P93  .26+  .42-    211127 V27  .12-  .36-    
211126 Y00  .01-  .34+    211126 P93  .29+  .00     

Ephemerides (geocentric):
Date (UTC) HH   RA              Dec         delta   r     elong  mag " sig PA
---- -- -- --  -------------   -----------  ------ ------ -----  --- ---- ---
2021 11 27 10  05 20 55.915   +31 16 40.61  .03833 1.0232 161.7 19.0 9.1m 117
2021 11 27 11  05 20 40.792   +31 15 56.34  .03873 1.0236 161.7 19.0 8.0m 131
2021 11 27 12  05 20 25.970   +31 15 12.81  .03912 1.0240 161.8 19.0 7.4m 148
2021 11 27 13  05 20 11.440   +31 14 30.00  .03951 1.0244 161.9 19.0 7.5m 166
2021 11 27 14  05 19 57.194   +31 13 47.89  .03991 1.0247 162.0 19.1 8.3m   2
2021 11 27 15  05 19 43.224   +31 13 06.46  .04030 1.0251 162.1 19.1 9.6m  14
2021 11 27 16  05 19 29.520   +31 12 25.70  .04070 1.0255 162.2 19.1 .011  23
2021 11 27 17  05 19 16.076   +31 11 45.58  .04109 1.0259 162.3 19.1 .013  30
2021 11 27 18  05 19 02.884   +31 11 06.10  .04149 1.0263 162.3 19.1 .015  35
2021 11 27 19  05 18 49.937   +31 10 27.23  .04188 1.0267 162.4 19.2 .017  39
2021 11 27 20  05 18 37.228   +31 09 48.97  .04228 1.0271 162.5 19.2 .019  42
2021 11 27 21  05 18 24.749   +31 09 11.29  .04267 1.0275 162.6 19.2 .021  44
2021 11 27 22  05 18 12.496   +31 08 34.18  .04307 1.0279 162.7 19.2 .023  46
2021 11 27 23  05 18 00.461   +31 07 57.63  .04346 1.0282 162.8 19.2 .025  48
2021 11 28 00  05 17 48.639   +31 07 21.63  .04386 1.0286 162.8 19.3 .027  49
2021 11 28 01  05 17 37.024   +31 06 46.15  .04425 1.0290 162.9 19.3 .030  50
2021 11 28 02  05 17 25.610   +31 06 11.20  .04465 1.0294 163.0 19.3 .032  51
